Date,TemperatureHighF,TemperatureAvgF,TemperatureLowF,DewpointHighF,DewpointAvgF,DewpointLowF,HumidityHigh,HumidityAvg,HumidityLow,PressureMaxIn,PressureMinIn,WindSpeedMaxMPH,WindSpeedAvgMPH,GustSpeedMaxMPH,PrecipitationSumIn
2013-2-1,2.0,-4.3,-15.0,-3.0,-11.7,-22.0,79,70,63,0.00,40.00,8,5,16,0.00
2013-2-2,14.0,0.8,-22.0,4.0,-6.4,-30.0,80,71,61,0.00,40.00,6,2,11,0.00
2013-2-3,7.0,4.0,0.0,1.0,-2.9,-6.0,80,73,61,0.00,40.00,11,6,19,0.00
2013-2-4,13.0,-3.8,-19.0,-3.0,-14.0,-27.0,74,63,38,0.00,40.00,6,2,11,0.00
2013-2-5,18.0,10.0,-10.0,12.0,5.0,-15.0,84,80,73,0.00,40.00,9,4,16,0.00
2013-2-6,20.0,10.5,-7.0,17.0,5.0,-12.0,91,79,60,0.00,40.00,5,2,9,0.00
2013-2-7,22.0,18.6,15.0,19.0,15.8,11.0,91,88,82,0.00,40.00,7,5,18,0.00
2013-2-8,25.0,15.2,-3.0,12.0,8.7,-8.0,88,76,56,0.00,40.00,6,2,10,0.00
2013-2-9,29.0,19.0,-1.0,17.0,12.1,-5.0,93,75,57,0.00,40.00,10,6,20,0.00
2013-2-10,31.0,26.1,19.0,30.0,24.3,17.0,97,93,89,0.00,40.00,10,5,19,0.00
2013-2-11,30.0,25.2,20.0,29.0,23.0,17.0,97,92,85,0.00,40.00,9,6,19,0.00
2013-2-12,23.0,19.6,17.0,19.0,15.6,13.0,89,84,74,0.00,40.00,8,6,18,0.00
2013-2-13,41.0,28.0,20.0,26.0,21.7,17.0,90,78,52,0.00,40.00,6,4,13,0.00
2013-2-14,26.0,21.9,16.0,22.0,16.1,7.0,86,78,67,0.00,40.00,8,5,17,0.00
2013-2-15,16.0,10.8,0.0,10.0,4.9,-5.0,85,77,67,0.00,40.00,9,5,18,0.00
2013-2-16,17.0,5.7,-20.0,6.0,-1.7,-28.0,83,72,54,0.00,40.00,5,3,11,0.00
2013-2-17,25.0,10.1,-26.0,7.0,-4.6,-35.0,65,52,35,0.00,40.00,9,5,20,0.00
2013-2-18,32.0,25.6,20.0,26.0,19.0,11.0,94,76,65,0.00,40.00,10,6,23,0.00
2013-2-19,25.0,10.0,6.0,22.0,5.5,0.0,90,82,75,0.00,40.00,11,9,28,0.00
2013-2-20,16.0,8.0,-14.0,11.0,3.4,-21.0,83,81,70,0.00,40.00,9,6,21,0.00
2013-2-21,22.0,13.6,-17.0,16.0,9.2,-25.0,90,82,67,0.00,40.00,9,5,17,0.00
2013-2-22,26.0,21.2,18.0,23.0,18.5,16.0,93,89,85,0.00,40.00,9,5,16,0.00
2013-2-23,31.0,23.2,11.0,26.0,20.5,8.0,93,89,83,0.00,40.00,6,2,11,0.00
2013-2-24,30.0,23.6,12.0,24.0,20.1,9.0,93,86,77,0.00,40.00,5,1,9,0.00
2013-2-25,35.0,26.6,13.0,27.0,21.5,10.0,92,81,64,0.00,40.00,7,2,13,0.00
2013-2-26,40.0,27.4,6.0,26.0,20.1,2.0,93,75,51,0.00,40.00,10,5,22,0.00
2013-2-27,30.0,28.6,27.0,26.0,23.4,22.0,85,81,75,0.00,40.00,10,8,25,0.00
2013-2-28,27.0,22.2,19.0,23.0,18.1,15.0,91,84,74,0.00,40.00,10,8,25,0.00